Time,TemperatureF,DewpointF,PressureIn,WindDirection,WindDirectionDegrees,WindSpeedMPH,WindSpeedGustMPH,Humidity,HourlyPrecipIn,Conditions,Clouds,dailyrainin,SoftwareType,DateUTC
2013-02-14 00:01:00,43.0,42.0,-100.00,NW,315,2.0,6.0,96,-99.99,,,-99.99,,2013-02-14 08:01:00,
2013-02-14 00:10:00,43.0,41.0,-100.00,WNW,300,1.0,6.0,92,-99.99,,,-99.99,,2013-02-14 08:10:00,
2013-02-14 01:01:00,43.0,41.0,-100.00,WNW,300,1.0,6.0,92,-99.99,,,-99.99,,2013-02-14 09:01:00,
2013-02-14 01:10:00,43.0,40.0,-100.00,West,270,3.0,7.0,89,-99.99,,,-99.99,,2013-02-14 09:10:00,
2013-02-14 02:02:00,43.0,40.0,-100.00,West,270,3.0,7.0,89,-99.99,,,-99.99,,2013-02-14 10:02:00,
2013-02-14 02:10:00,43.0,39.0,-100.00,West,280,3.0,8.0,85,-99.99,,,-99.99,,2013-02-14 10:10:00,
2013-02-14 03:01:00,43.0,39.0,-100.00,West,280,3.0,8.0,85,-99.99,,,-99.99,,2013-02-14 11:01:00,
2013-02-14 03:10:00,42.0,39.0,-100.00,WNW,300,5.0,13.0,89,-99.99,,,-99.99,,2013-02-14 11:10:00,
2013-02-14 04:02:00,42.0,39.0,-100.00,WNW,300,5.0,13.0,89,-99.99,,,-99.99,,2013-02-14 12:02:00,
2013-02-14 04:10:00,43.0,38.0,-100.00,WNW,300,1.0,9.0,82,-99.99,,,-99.99,,2013-02-14 12:10:00,
2013-02-14 05:01:00,43.0,38.0,-100.00,WNW,300,1.0,9.0,82,-99.99,,,-99.99,,2013-02-14 13:01:00,
2013-02-14 05:10:00,43.0,38.0,-100.00,NNW,330,1.0,7.0,82,-99.99,,,-99.99,,2013-02-14 13:10:00,
2013-02-14 06:01:00,43.0,38.0,-100.00,NNW,330,1.0,7.0,82,-99.99,,,-99.99,,2013-02-14 14:01:00,
2013-02-14 06:10:00,42.0,40.0,-100.00,East,95,2.0,3.0,92,-99.99,,,-99.99,,2013-02-14 14:10:00,
2013-02-14 07:01:00,42.0,40.0,-100.00,East,95,2.0,3.0,92,-99.99,,,-99.99,,2013-02-14 15:01:00,
2013-02-14 07:10:00,41.0,40.0,-100.00,ENE,75,1.0,5.0,96,-99.99,,,-99.99,,2013-02-14 15:10:00,
2013-02-14 08:01:00,41.0,40.0,-100.00,ENE,75,1.0,5.0,96,-99.99,,,-99.99,,2013-02-14 16:01:00,
2013-02-14 08:10:00,41.0,41.0,-100.00,ENE,75,2.0,6.0,100,-99.99,,,-99.99,,2013-02-14 16:10:00,
2013-02-14 09:01:00,41.0,41.0,-100.00,ENE,75,2.0,6.0,100,-99.99,,,-99.99,,2013-02-14 17:01:00,
2013-02-14 09:10:00,42.0,40.0,-100.00,NE,55,1.0,5.0,92,-99.99,,,-99.99,,2013-02-14 17:10:00,
2013-02-14 10:01:00,42.0,40.0,-100.00,NE,55,1.0,5.0,92,-99.99,,,-99.99,,2013-02-14 18:01:00,
2013-02-14 10:10:00,43.0,41.0,-100.00,East,100,2.0,8.0,92,-99.99,,,-99.99,,2013-02-14 18:10:00,
2013-02-14 11:02:00,43.0,41.0,-100.00,East,100,2.0,8.0,92,-99.99,,,-99.99,,2013-02-14 19:02:00,
2013-02-14 11:10:00,47.0,43.0,-100.00,SSW,210,1.0,3.0,85,-99.99,,,-99.99,,2013-02-14 19:10:00,
2013-02-14 12:01:00,47.0,43.0,-100.00,SSW,210,1.0,3.0,85,-99.99,,,-99.99,,2013-02-14 20:01:00,
2013-02-14 12:10:00,47.0,42.0,-100.00,SE,125,1.0,3.0,82,-99.99,,,-99.99,,2013-02-14 20:10:00,
2013-02-14 13:02:00,47.0,42.0,-100.00,SE,125,1.0,3.0,82,-99.99,,,-99.99,,2013-02-14 21:02:00,
2013-02-14 13:10:00,47.0,42.0,-100.00,SE,135,1.0,3.0,82,-99.99,,,-99.99,,2013-02-14 21:10:00,
2013-02-14 14:02:00,47.0,42.0,-100.00,SE,135,1.0,3.0,82,-99.99,,,-99.99,,2013-02-14 22:02:00,
2013-02-14 14:10:00,48.0,43.0,-100.00,WNW,295,0.0,3.0,82,-99.99,,,-99.99,,2013-02-14 22:10:00,
2013-02-14 15:01:00,48.0,43.0,-100.00,WNW,295,0.0,3.0,82,-99.99,,,-99.99,,2013-02-14 23:01:00,
2013-02-14 15:10:00,49.0,43.0,-100.00,East,90,1.0,1.0,79,-99.99,,,-99.99,,2013-02-14 23:10:00,
2013-02-14 16:01:00,49.0,43.0,-100.00,East,90,1.0,1.0,79,-99.99,,,-99.99,,2013-02-15 00:01:00,
2013-02-14 16:10:00,49.0,44.0,-100.00,NNW,340,0.0,1.0,82,-99.99,,,-99.99,,2013-02-15 00:10:00,
2013-02-14 17:02:00,49.0,44.0,-100.00,NNW,340,0.0,1.0,82,-99.99,,,-99.99,,2013-02-15 01:02:00,
2013-02-14 17:10:00,47.0,44.0,-100.00,North,-999,0.0,0.0,89,-99.99,,,-99.99,,2013-02-15 01:10:00,
2013-02-14 18:01:00,47.0,44.0,-100.00,North,-999,0.0,0.0,89,-99.99,,,-99.99,,2013-02-15 02:01:00,
2013-02-14 18:10:00,46.0,44.0,-100.00,NE,35,0.0,1.0,92,-99.99,,,-99.99,,2013-02-15 02:10:00,
2013-02-14 19:02:00,46.0,44.0,-100.00,NE,35,0.0,1.0,92,-99.99,,,-99.99,,2013-02-15 03:02:00,
2013-02-14 19:10:00,45.0,44.0,-100.00,North,-999,0.0,0.0,96,-99.99,,,-99.99,,2013-02-15 03:10:00,
2013-02-14 20:01:00,45.0,44.0,-100.00,North,-999,0.0,0.0,96,-99.99,,,-99.99,,2013-02-15 04:01:00,
2013-02-14 20:10:00,45.0,44.0,-100.00,NE,50,0.0,1.0,96,-99.99,,,-99.99,,2013-02-15 04:10:00,
2013-02-14 21:02:00,45.0,44.0,-100.00,NE,50,0.0,1.0,96,-99.99,,,-99.99,,2013-02-15 05:02:00,
2013-02-14 21:10:00,45.0,44.0,-100.00,NE,45,0.0,2.0,96,-99.99,,,-99.99,,2013-02-15 05:10:00,
2013-02-14 22:02:00,45.0,44.0,-100.00,NE,45,0.0,2.0,96,-99.99,,,-99.99,,2013-02-15 06:02:00,
2013-02-14 22:10:00,44.0,43.0,-100.00,ESE,105,1.0,2.0,96,-99.99,,,-99.99,,2013-02-15 06:10:00,
2013-02-14 23:01:00,44.0,43.0,-100.00,ESE,105,1.0,2.0,96,-99.99,,,-99.99,,2013-02-15 07:01:00,
2013-02-14 23:10:00,43.0,42.0,-100.00,ESE,115,1.0,2.0,96,-99.99,,,-99.99,,2013-02-15 07:10:00,